Probability
0 0 0 0 0 0 0 0 0 0 0 0 0 0 0 0 0 0 0 0 0 0 0 0 0 0 0 0 0 0 0 0 0 0 0 0 0 0
0 0 0 0 0 0 0 0 0 0 0 0 0 0 0 0 0 0 0 0 0 0 0 0 0 0 0 0 0 0 0 0 0 0 0 0 0 0
0 0 0 0 0 0 0 0 0 0 0 0 0 0 0 0 0 0 0 0 0 0 0 0 0 0 0 0 0 0 0 0 0 0 0 0 0 0
0 0 0 0 0 0 0 0 0 0 0 0 0 0 0 0 0 0 0 0 0 0 0 0 0 0 0 0 0 0 0 0 0 0 0 0 0 0
0 0 0 0 0 0 0 0 0 0 0 0 0 0 0 0 0 0 0 0 0 0 0 0 0 0 0 0 0 0 0 0 0 0 0 0 0 0
0 0 0 0 0 0 0 0 0 0 0 0 0 0 0 0 0 0 0 0 0 0 0 0 0 0 0 0 0 0 0 0 0 0 0 0 0 0
0 0 0 0 0 0 0 0 0 0 0 0 0 0 0 0 0 0 0 0 0 0 0 0 0 0 0 0 0 0 0 0 0 0 0 0 0 0
0 0 0 0 0 0 0 0 0 0 0 0 0 0 0 0 0 0 0 0 0 0 0 0 0 0 0 0 0 0 0 0 0 0 0 0 0 0
0 0 0 0 0 0 0 0 0 0 0 0 0 0 0 0 0 0 0 0 0 0 0 0 0 0 0 0 0 0 0 0 0 0 0 0 0 0
0 0 0 0 0 0 0 0 0 0 0 0 0 0 0 0 0 0 0 0 0 0 0 0 0 0 0 0 0 0 0 0 0 0 0 0 0 0
0 0 0 0 0 0 0 0 0 0 0 0 0 0 0 0 0 0 0 0 0 0 0 0 0 0 0 0 0 0 0 0 0 0 0 0 0 0
0 0 0 0 0 0 0 0 0 0 0 0 0 0 0 0 0 0 0 0 0 0 0 0 0 0 0 0 0 0 0 0 0 0 0 0 0 0
0 0 0 0 0 0 0 0 0 0 0 0 0 0 0 0 0 0 0 0 0 0 0 0 0 0 0 0 0 0 0 0 0 0 0 0 0 0
0 0 0 0 0 0 0 0 0 0 0 0 0 0 0 0 0 0 0 0 0 0 0 0 0 0 0 0 0 0 0 0 0 0 0 0 0 0
0 0 0 0 0 0 0 0 0 0 0 0 0 0 0 0 0 0 0 0 0 0 0 0 0 0 0 0 0 0 0 0 0 0 0 0 0 0
0 0 0 0 0 0 0 0 0 0 0 0 0 0 0 0 0 0 0 0 0 0 0 0 0 0 0 0 0 0 0 0 0 0 0 0 0 0
0 0 0 0 0 0 0 0 0 0 0 0 0 0 0 0 0 0 0 0 0 0 0 0 0 0 0 0 0 0 0 0 0 0 0 0 0 0
0 0 0 0 0 0 0 0 0 0 0 0 0 0 0 0 0 0 0 0 0 0 0 0 0 0 0 0 0 0 0 0 0 0 0 0 0 0
0 0 0 0 0 0 0 0 0 0 0 0 0 0 0 0 0 0 0 0 0 0 0 0 0 0 0 0 0 0 0 0 0 0 0 0 0 0
0 0 0 0 0 0 0 0 0 0 0 0 0 0 0 0 0 0 0 0 0 0 0 0 0 0 0 0 0 0 0 0 0 0 0 0 0 0
0 0 0 0 0 0 0 0 0 0 0 0 0 0 0 0 0 0 0 0 0 0 0 0 0 0 0 0 0 0 0 0 0 0 0 0 0 0
0 0 0 0 0 0 0 0 0 0 0 0 0 0 0 0 0 0 0 0 0 0 0 0 0 0 0 0 0 0 0 0 0 0 0 0 0 0
0 0 0 0 0 0 0 0 0 0 0 0 0 0 0 0 0 0 0 0 0 0 0 0 0 0 0 0 0 0 0 0 0 0 0 0 0 0
Wind_Speed
2 2 1 1 1 1 1 1 2 4 4 2 2 3 4 3 7 5 5 9 10 10 10 10 10 11 11 10 11 11 11 11 11 11 11 11 11 11
1 2 2 2 1 1 1 1 2 3 4 2 2 3 4 5 8 5 5 10 10 10 10 10 10 11 11 10 11 11 12 12 12 12 13 12 12 12
2 1 2 2 1 1 1 1 2 2 3 3 2 3 4 5 5 5 4 4 5 11 11 11 11 10 11 11 11 12 12 12 13 13 13 13 13 13
2 2 2 1 2 1 1 2 2 2 2 4 3 3 3 4 5 5 5 5 4 9 11 11 10 11 11 12 12 12 12 12 12 13 13 13 13 13
2 2 2 1 2 2 2 2 2 2 1 2 3 2 2 3 4 5 5 4 5 7 9 10 11 12 12 12 12 12 12 12 12 13 13 14 14 14
2 2 2 2 2 2 2 2 2 2 2 2 3 3 3 3 3 4 5 4 5 5 7 8 10 12 12 13 12 12 12 13 13 13 14 14 14 14
2 2 2 2 2 2 2 1 1 2 2 2 3 3 3 3 4 4 5 5 4 3 4 4 5 5 6 9 11 12 12 13 13 14 14 14 15 15
2 2 2 2 3 4 4 3 3 2 2 2 2 3 4 3 4 4 5 5 5 3 4 6 4 4 4 4 11 14 13 13 14 14 15 15 15 16
3 2 2 2 2 1 2 4 4 5 4 2 2 3 3 4 4 5 4 5 5 5 4 5 4 4 4 7 14 13 12 13 14 15 16 16 17 17
3 3 3 2 2 2 1 1 2 2 3 2 1 2 3 3 3 3 4 5 5 3 3 4 4 4 6 6 11 12 13 14 15 16 17 17 17 17
3 3 3 3 4 4 1 1 2 2 3 3 4 4 6 7 5 3 3 4 5 4 2 3 4 6 6 5 6 11 14 16 17 17 17 18 18 17
2 2 4 4 5 4 1 1 2 2 2 2 3 4 4 5 6 3 2 3 4 4 2 3 4 5 6 4 3 5 7 13 17 18 18 18 17 10
3 2 3 5 5 5 3 2 4 2 1 1 2 2 2 2 2 2 2 2 3 4 4 4 4 4 4 7 6 5 5 6 7 10 13 17 17 13
4 3 3 6 6 5 3 3 4 2 0 1 1 2 2 3 3 3 4 4 4 6 7 5 4 5 6 8 8 6 5 6 6 7 6 12 14 16
4 5 6 6 5 3 4 4 2 0 0 1 2 2 2 3 3 4 4 5 5 6 5 5 5 5 6 7 8 8 8 7 6 5 6 7 8 8
3 4 5 5 3 2 2 2 1 1 1 2 2 2 2 3 3 3 4 5 5 5 4 5 5 6 6 8 8 10 8 7 6 7 8 8 8 7
3 2 1 1 2 2 1 1 1 1 1 1 2 2 3 3 3 3 3 4 4 6 7 5 5 6 8 8 8 8 8 8 8 8 9 10 9 8
5 3 3 3 3 3 3 2 2 2 2 2 2 2 3 3 4 4 4 4 5 6 7 7 6 6 5 5 8 8 7 7 8 8 8 10 11 8
5 4 4 4 4 3 3 3 3 2 2 2 2 2 3 3 4 4 4 5 5 6 6 6 5 5 7 9 7 6 6 8 9 9 8 8 11 11
4 4 4 4 3 3 3 3 3 2 2 2 3 3 3 3 4 4 4 5 6 7 7 6 4 4 6 8 9 9 10 9 8 10 10 9 10 13
4 4 4 4 3 3 3 3 3 3 3 3 3 3 3 3 4 4 5 8 7 6 7 7 7 11 7 6 8 9 8 10 12 10 10 9 9 8
4 4 4 4 4 4 3 3 3 3 3 3 3 3 3 3 4 6 5 6 6 6 8 8 8 7 5 6 9 11 12 11 12 16 15 12 7 7
5 4 4 4 4 4 3 4 4 4 3 3 3 4 4 4 4 5 5 6 6 7 8 8 7 6 6 6 8 9 12 12 9 9 8 11 14 16
Wind_Direction
322 326 317 317 324 319 316 293 278 288 290 306 332 346 343 343 350 346 337 342 348 348 348 349 348 344 339 336 332 327 322 320 317 311 306 300 294 295
312 329 323 320 324 336 328 318 285 266 273 304 313 324 338 345 346 342 335 344 348 347 345 346 345 343 339 340 338 335 332 324 316 313 308 303 297 292
318 318 317 321 314 326 324 313 306 288 275 293 304 319 331 336 333 333 334 337 339 343 343 345 345 346 346 345 342 338 334 331 327 320 314 310 304 297
292 303 305 313 310 310 307 302 296 286 269 286 305 316 319 325 327 331 339 343 335 339 341 343 345 348 347 344 341 338 335 331 327 324 319 314 310 303
262 267 277 286 290 294 296 293 295 306 284 283 299 307 310 324 330 329 332 331 331 335 339 342 342 341 339 337 336 335 332 329 327 322 319 315 312 308
266 265 265 256 256 267 279 282 291 301 302 297 297 305 310 321 332 328 324 331 325 331 337 336 335 336 334 333 331 330 327 325 324 322 320 316 311 308
274 280 280 280 277 281 290 289 295 293 301 300 301 309 318 334 332 320 316 319 309 323 322 320 321 319 324 326 328 325 323 322 323 324 321 317 314 309
252 274 286 298 307 323 333 342 337 309 294 288 299 305 309 313 308 316 318 323 314 329 326 309 310 308 312 311 320 323 323 324 324 323 321 318 314 309
231 246 269 285 305 303 341 350 350 342 334 306 292 294 298 305 308 311 311 306 293 307 317 298 306 301 305 314 319 319 322 324 324 323 320 317 314 310
230 229 233 250 262 262 257 315 322 328 328 334 271 280 289 293 288 297 300 302 290 296 308 290 303 300 307 306 316 321 325 325 323 320 317 315 313 309
241 239 228 231 256 271 239 268 299 306 326 337 331 332 335 340 344 343 329 323 312 312 332 307 307 309 301 294 308 321 323 322 320 318 317 316 314 311
239 246 243 234 247 265 230 230 269 281 305 327 342 350 352 348 354 358 320 310 309 305 326 326 309 325 313 291 290 302 307 311 316 318 317 315 314 309
222 228 240 250 254 263 260 237 257 271 264 302 316 323 329 329 333 331 315 289 283 278 295 313 301 302 286 299 299 294 294 299 306 308 312 314 313 309
218 217 228 245 254 261 266 270 284 304 310 301 308 309 315 318 316 312 304 289 271 270 281 282 277 285 292 294 294 298 299 296 297 298 298 307 309 308
210 221 231 241 249 259 270 280 289 280 267 285 293 297 300 299 304 307 305 297 288 280 280 272 264 274 274 280 288 294 303 300 291 292 296 298 297 299
215 228 241 248 238 239 261 280 260 230 246 264 285 295 304 306 311 316 314 317 310 301 282 274 271 267 274 274 277 286 288 288 297 297 297 293 288 284
182 178 193 204 214 219 229 234 236 261 269 270 280 294 303 309 312 317 311 313 304 304 308 303 283 271 263 267 277 278 283 284 286 295 300 298 289 281
200 194 209 214 222 225 227 229 228 239 245 253 267 279 293 300 304 308 304 301 300 300 301 306 314 314 304 275 243 265 278 284 291 294 292 293 294 290
211 206 213 216 220 221 221 222 229 236 242 251 262 272 280 285 291 297 300 300 298 296 297 300 307 311 313 310 290 247 272 291 295 294 288 284 287 292
206 210 214 215 215 217 219 224 231 237 241 251 258 262 266 274 282 285 290 292 295 297 299 297 293 287 285 291 294 290 279 277 285 291 292 288 280 283
212 212 211 209 210 212 217 222 227 235 240 245 254 258 261 268 276 280 284 292 296 295 298 298 289 296 289 285 287 289 288 282 283 283 289 293 294 292
213 213 211 207 207 208 213 219 228 234 237 243 252 256 257 260 270 277 282 287 288 288 290 293 295 298 289 286 291 295 300 302 298 292 280 271 279 288
212 210 209 206 207 205 209 218 226 234 237 240 247 253 257 264 269 273 279 283 288 292 296 300 302 297 292 288 291 295 299 305 307 309 298 290 291 288